Content
SEND FEEDBACK

Daily
Averages
Monthly
Summary
Turkmenistan

ASHGABAT, TURKMENISTAN


Home > Asia > Turkmenistan
Elevation: 775 feet     Latitude: 37 58N     Longitude: 058 20E

WEATHER
 
SELECT A DAY
Number of Records: 177,426;   Date Range: 3/15/97 - 8/30/14
 
SHARE

PRINT THIS DATA

[ ← Previous Day ]
WEATHER ALMANAC - MAY 15, 2014
[ Next Day → ]
[ °C ]   °F
Weather ElementAverageHighLow
Temperature81.6 °F94 °F (5:00 pm)66.2 °F (6:00 am)
Dewpoint30.6 °F44 °F (11:00 pm)24.8 °F (2:00 am)
Humidity14.3 %21 % (3:00 am)7 % (5:00 pm)
Barometer29.74 in29.77 in (8:00 am)29.71 in (2:00 am)
Wind Speed9.1 mph15.7 mph (10:00 am)
Wind Gust15.7 mph (3:00 pm)
Weather ElementAverage
Visibility5.9 mi
Wind DirectionWSW (258.8 °)

Weather ElementTotal
Precipitation---
Cooling Degree Days15.1 (Base 65)
Growing Degree Days30.1 (Base 50)
Averaged from 32 records on May 15, 2014
WEATHER CONDITIONS BREAKOUT
WIND DIRECTION BREAKOUT
WEATHER BY HOUR - MAY 15, 2014
[ °C ]   °F
Local TimeTemperatureDewpointHumidityBarometerVisibilityWind DirectionWind SpeedGust SpeedPrecipitationEventsConditions
1:00 AM71.6 °F26.6 °F19 %29.74 in6.2 miSouth (190°)4.5 mphPartly Cloudy
2:00 AM71.0 °F31.0 °F13 %29.74 in1.0 miSW (220°)6.7 mphHaze
2:00 AM69.8 °F24.8 °F18 %29.71 in2.5 miSSW (200°)4.5 mphHaze
3:00 AM68.0 °F26.6 °F21 %29.71 in6.2 miSW (220°)6.7 mphScattered Clouds
4:00 AM68.0 °F24.8 °F20 %29.71 in6.2 miSW (230°)8.9 mphScattered Clouds
5:00 AM68.0 °F31.0 °F15 %29.73 in6.0 miWNW (290°)4.5 mphClear
5:00 AM69.8 °F24.8 °F18 %29.71 in6.2 miSW (230°)4.5 mphPartly Cloudy
6:00 AM66.2 °F24.8 °F21 %29.74 in6.2 miWSW (240°)4.5 mphScattered Clouds
7:00 AM69.8 °F24.8 °F18 %29.74 in6.2 miWest (260°)11.2 mphPartly Cloudy
8:00 AM73.0 °F32.0 °F12 %29.77 in6.0 miWNW (300°)11.2 mphClear
8:00 AM75.2 °F30.2 °F19 %29.77 in6.2 miWNW (300°)11.2 mphPartly Cloudy
9:00 AM78.8 °F33.8 °F20 %29.77 in6.2 miNW (310°)13.4 mphMostly Cloudy
10:00 AM82.4 °F32.0 °F16 %29.77 in6.2 miNW (310°)15.7 mphMostly Cloudy
11:00 AM84.0 °F39.0 °F11 %29.77 in6.0 miNNW (340°)15.7 mphClear
11:00 AM84.2 °F32.0 °F15 %29.77 in6.2 miNW (320°)15.7 mphScattered Clouds
12:00 PM87.8 °F32.0 °F14 %29.77 in6.2 miWNW (300°)13.4 mphScattered Clouds
1:00 PM89.6 °F28.4 °F11 %29.77 in6.2 miNW (310°)11.2 mphPartly Cloudy
2:00 PM90.0 °F37.0 °F8 %29.75 in6.0 miWest (260°)8.9 mphScattered Clouds
2:00 PM93.2 °F30.2 °F11 %29.74 in6.2 miWest (280°)8.9 mphPartly Cloudy
3:00 PM93.2 °F26.6 °F9 %29.74 in6.2 miNNE (30°)4.5 mph15.7 mphPartly Cloudy
4:00 PM93.2 °F24.8 °F9 %29.71 in6.2 miWNW (300°)6.7 mphScattered Clouds
5:00 PM94.0 °F38.0 °F7 %29.71 in6.0 miSW (220°)6.7 mphClear
5:00 PM93.2 °F26.6 °F9 %29.71 in6.2 miSW (230°)6.7 mphScattered Clouds
6:00 PM93.2 °F26.6 °F9 %29.71 in6.2 miWest (280°)6.7 mphScattered Clouds
6:30 PM93.2 °F28.4 °F10 %29.71 in6.2 miWest (270°)11.2 mphScattered Clouds
7:00 PM91.4 °F28.4 °F10 %29.71 in6.2 miWest (260°)11.2 mphScattered Clouds
8:00 PM88.0 °F42.0 °F11 %29.71 in6.0 miWest (270°)8.9 mphClear
8:00 PM87.8 °F30.2 °F13 %29.71 in6.2 miWest (270°)8.9 mphPartly Cloudy
9:00 PM84.2 °F32.0 °F15 %29.74 in6.2 miWest (260°)11.2 mphScattered Clouds
10:00 PM80.6 °F33.8 °F18 %29.74 in6.2 miWest (260°)8.9 mphPartly Cloudy
11:00 PM77.0 °F44.0 °F20 %29.75 in6.0 miWest (260°)8.9 mph
11:00 PM80.6 °F32.0 °F17 %29.74 in6.2 miWest (260°)8.9 mphClear
Hourly data recorded from UTAA, located miles away from Ashgabat, Turkmenistan







STORIES FROM OUR PARTNERS